sat.trackr.live / text

‹ back to catalog

STARLINK-31447

NORAD 59302 · 2024-056G

PAYLOAD ACTIVE UNKNOWN

§ Identity

Operator
Country
US
Launch date
2024-03-24
Launch site
AFETR
Launch vehicle
Mass (kg)
RCS (m²)

Purposes: comms

External: N2YO · Heavens-Above · Gunter

§ Orbital elements

Epoch: 2026-05-25T01:22:32.971584Z

Period
94.27 min
Inclination
43.0008°
Eccentricity
0.0001281
Mean motion
15.27574383 rev/d
Perigee alt
482.2 km
Apogee alt
483.9 km
Semi-major
6,861.2 km
B*
5.8052e-6
RAAN
159.4346°
Arg perigee
274.6319°
Mean anomaly
85.4386°
Rev number
12,283

§ Raw data

STARLINK-314471 59302U 24056G   26145.05732606 -.00000102  00000+0  58052-5 0  99912 59302  43.0008 159.4346 0001281 274.6319  85.4386 15.27574383122837

JSON: /api/v1/satellites/59302 · /tle

For live sub-satellite position, see the globe view (requires WebGL).

§ Visibility from observer

Set your observer location to see the next 7 days of passes ≥ 10°. The values pass through the URL so the page stays shareable.

No JS? Fill the form by hand. The geolocation button needs JavaScript.